Time,TemperatureF,DewpointF,PressureIn,WindDirection,WindDirectionDegrees,WindSpeedMPH,WindSpeedGustMPH,Humidity,HourlyPrecipIn,Conditions,Clouds,dailyrainin,SoftwareType,DateUTC
2013-11-29 00:01:00,35.3,24.0,30.43,South,180,0.0,0.0,63,0.00,,---,0.00,VWS V14.00,2013-11-29 06:01:00,
2013-11-29 00:06:00,35.2,23.9,30.43,South,180,3.0,3.0,63,0.00,,---,0.00,VWS V14.00,2013-11-29 06:06:00,
2013-11-29 00:11:00,35.2,23.9,30.43,South,180,2.0,4.0,63,0.00,,---,0.00,VWS V14.00,2013-11-29 06:11:00,
2013-11-29 00:16:00,35.1,23.8,30.43,South,180,0.0,2.0,63,0.00,,---,0.00,VWS V14.00,2013-11-29 06:16:00,
2013-11-29 00:21:00,35.0,23.7,30.42,South,180,0.0,0.0,63,0.00,,---,0.00,VWS V14.00,2013-11-29 06:21:00,
2013-11-29 00:26:00,34.9,23.6,30.42,South,180,0.0,2.0,63,0.00,,---,0.00,VWS V14.00,2013-11-29 06:26:00,
2013-11-29 00:31:00,34.8,23.5,30.42,South,180,0.0,3.0,63,0.00,,---,0.00,VWS V14.00,2013-11-29 06:31:00,
2013-11-29 00:36:00,34.7,23.4,30.42,South,180,0.0,2.0,63,0.00,,---,0.00,VWS V14.00,2013-11-29 06:36:00,
2013-11-29 00:41:00,34.5,23.2,30.42,South,180,0.0,2.0,63,0.00,,---,0.00,VWS V14.00,2013-11-29 06:41:00,
2013-11-29 00:46:00,34.4,23.5,30.42,South,180,0.0,0.0,64,0.00,,---,0.00,VWS V14.00,2013-11-29 06:46:00,
2013-11-29 00:51:00,34.4,23.5,30.43,South,180,0.0,1.0,64,0.00,,---,0.00,VWS V14.00,2013-11-29 06:51:00,
2013-11-29 00:56:00,34.2,23.3,30.42,South,180,0.0,2.0,64,0.00,,---,0.00,VWS V14.00,2013-11-29 06:56:00,
2013-11-29 01:01:00,34.0,23.5,30.43,South,180,0.0,0.0,65,0.00,,---,0.00,VWS V14.00,2013-11-29 07:01:00,
2013-11-29 01:06:00,33.9,23.4,30.43,South,180,0.0,0.0,65,0.00,,---,0.00,VWS V14.00,2013-11-29 07:06:00,
2013-11-29 01:11:00,33.8,23.3,30.43,South,180,0.0,0.0,65,0.00,,---,0.00,VWS V14.00,2013-11-29 07:11:00,
2013-11-29 01:16:00,33.8,23.3,30.43,South,180,0.0,0.0,65,0.00,,---,0.00,VWS V14.00,2013-11-29 07:16:00,
2013-11-29 01:21:00,33.7,23.2,30.43,South,180,0.0,0.0,65,0.00,,---,0.00,VWS V14.00,2013-11-29 07:21:00,
2013-11-29 01:26:00,33.6,23.1,30.43,South,180,0.0,0.0,65,0.00,,---,0.00,VWS V14.00,2013-11-29 07:26:00,
2013-11-29 01:31:00,33.5,23.4,30.43,South,180,0.0,0.0,66,0.00,,---,0.00,VWS V14.00,2013-11-29 07:31:00,
2013-11-29 01:36:00,33.4,23.3,30.42,South,180,0.0,0.0,66,0.00,,---,0.00,VWS V14.00,2013-11-29 07:36:00,
2013-11-29 01:41:00,33.2,23.1,30.42,South,180,0.0,0.0,66,0.00,,---,0.00,VWS V14.00,2013-11-29 07:41:00,
2013-11-29 01:46:00,32.9,22.8,30.43,South,180,0.0,0.0,66,0.00,,---,0.00,VWS V14.00,2013-11-29 07:46:00,
2013-11-29 01:51:00,32.8,23.1,30.43,South,180,0.0,0.0,67,0.00,,---,0.00,VWS V14.00,2013-11-29 07:51:00,
2013-11-29 01:56:00,32.6,23.2,30.43,South,180,2.0,3.0,68,0.00,,---,0.00,VWS V14.00,2013-11-29 07:56:00,
2013-11-29 02:01:00,32.6,23.2,30.43,South,180,0.0,3.0,68,0.00,,---,0.00,VWS V14.00,2013-11-29 08:01:00,
2013-11-29 02:06:00,32.6,23.2,30.43,South,180,0.0,2.0,68,0.00,,---,0.00,VWS V14.00,2013-11-29 08:06:00,
2013-11-29 02:11:00,32.6,23.2,30.43,South,180,0.0,0.0,68,0.00,,---,0.00,VWS V14.00,2013-11-29 08:11:00,
2013-11-29 02:16:00,32.5,23.5,30.43,South,180,0.0,0.0,69,0.00,,---,0.00,VWS V14.00,2013-11-29 08:16:00,
2013-11-29 02:21:00,32.5,23.1,30.43,South,180,0.0,0.0,68,0.00,,---,0.00,VWS V14.00,2013-11-29 08:21:00,
2013-11-29 02:26:00,32.4,23.4,30.43,South,180,0.0,0.0,69,0.00,,---,0.00,VWS V14.00,2013-11-29 08:26:00,
2013-11-29 02:31:00,32.4,23.4,30.43,South,180,0.0,0.0,69,0.00,,---,0.00,VWS V14.00,2013-11-29 08:31:00,
2013-11-29 02:36:00,32.4,23.4,30.43,South,180,0.0,0.0,69,0.00,,---,0.00,VWS V14.00,2013-11-29 08:36:00,
2013-11-29 02:41:00,32.3,23.3,30.43,South,180,0.0,0.0,69,0.00,,---,0.00,VWS V14.00,2013-11-29 08:41:00,
2013-11-29 02:46:00,32.2,23.2,30.43,South,180,0.0,0.0,69,0.00,,---,0.00,VWS V14.00,2013-11-29 08:46:00,
2013-11-29 02:51:00,32.1,23.1,30.44,South,180,0.0,0.0,69,0.00,,---,0.00,VWS V14.00,2013-11-29 08:51:00,
2013-11-29 02:56:00,32.1,23.1,30.44,South,180,0.0,0.0,69,0.00,,---,0.00,VWS V14.00,2013-11-29 08:56:00,
2013-11-29 03:01:00,31.9,22.9,30.44,South,180,0.0,0.0,69,0.00,,---,0.00,VWS V14.00,2013-11-29 09:01:00,
2013-11-29 03:06:00,31.6,22.6,30.44,South,180,0.0,0.0,69,0.00,,---,0.00,VWS V14.00,2013-11-29 09:06:00,
2013-11-29 03:11:00,31.1,22.1,30.44,South,180,0.0,0.0,69,0.00,,---,0.00,VWS V14.00,2013-11-29 09:11:00,
2013-11-29 03:16:00,30.8,22.2,30.44,South,180,0.0,0.0,70,0.00,,---,0.00,VWS V14.00,2013-11-29 09:16:00,
2013-11-29 03:21:00,30.6,22.0,30.44,South,180,0.0,0.0,70,0.00,,---,0.00,VWS V14.00,2013-11-29 09:21:00,
2013-11-29 03:26:00,30.5,21.9,30.44,South,180,0.0,0.0,70,0.00,,---,0.00,VWS V14.00,2013-11-29 09:26:00,
2013-11-29 03:31:00,30.3,22.0,30.44,South,180,0.0,0.0,71,0.00,,---,0.00,VWS V14.00,2013-11-29 09:31:00,
2013-11-29 03:36:00,30.1,22.2,30.44,South,180,0.0,0.0,72,0.00,,---,0.00,VWS V14.00,2013-11-29 09:36:00,
2013-11-29 03:41:00,30.0,22.4,30.44,South,180,0.0,0.0,73,0.00,,---,0.00,VWS V14.00,2013-11-29 09:41:00,
2013-11-29 03:46:00,30.0,22.4,30.45,South,180,0.0,0.0,73,0.00,,---,0.00,VWS V14.00,2013-11-29 09:46:00,
2013-11-29 03:51:00,30.0,22.4,30.44,South,180,0.0,0.0,73,0.00,,---,0.00,VWS V14.00,2013-11-29 09:51:00,
2013-11-29 03:56:00,30.1,22.8,30.44,South,180,0.0,0.0,74,0.00,,---,0.00,VWS V14.00,2013-11-29 09:56:00,
2013-11-29 04:01:00,30.1,22.8,30.44,South,180,0.0,0.0,74,0.00,,---,0.00,VWS V14.00,2013-11-29 10:01:00,
2013-11-29 04:06:00,30.1,22.8,30.44,South,180,0.0,0.0,74,0.00,,---,0.00,VWS V14.00,2013-11-29 10:06:00,
2013-11-29 04:11:00,30.2,22.9,30.44,South,180,0.0,0.0,74,0.00,,---,0.00,VWS V14.00,2013-11-29 10:11:00,
2013-11-29 04:16:00,30.2,22.9,30.45,South,180,0.0,0.0,74,0.00,,---,0.00,VWS V14.00,2013-11-29 10:16:00,
2013-11-29 04:21:00,30.3,23.0,30.45,South,180,0.0,0.0,74,0.00,,---,0.00,VWS V14.00,2013-11-29 10:21:00,
2013-11-29 04:26:00,30.3,23.0,30.44,South,180,0.0,0.0,74,0.00,,---,0.00,VWS V14.00,2013-11-29 10:26:00,
2013-11-29 04:31:00,30.3,23.0,30.44,South,180,0.0,0.0,74,0.00,,---,0.00,VWS V14.00,2013-11-29 10:31:00,
2013-11-29 04:36:00,30.2,22.9,30.45,South,180,0.0,0.0,74,0.00,,---,0.00,VWS V14.00,2013-11-29 10:36:00,
2013-11-29 04:41:00,30.2,22.6,30.45,South,180,0.0,0.0,73,0.00,,---,0.00,VWS V14.00,2013-11-29 10:41:00,
2013-11-29 04:46:00,30.1,22.5,30.45,South,180,0.0,0.0,73,0.00,,---,0.00,VWS V14.00,2013-11-29 10:46:00,
2013-11-29 04:51:00,30.1,22.5,30.45,South,180,0.0,0.0,73,0.00,,---,0.00,VWS V14.00,2013-11-29 10:51:00,
2013-11-29 04:56:00,30.0,22.4,30.45,South,180,0.0,0.0,73,0.00,,---,0.00,VWS V14.00,2013-11-29 10:56:00,
2013-11-29 05:01:00,29.8,22.2,30.45,South,180,0.0,0.0,73,0.00,,---,0.00,VWS V14.00,2013-11-29 11:01:00,
2013-11-29 05:06:00,29.7,22.1,30.45,South,180,0.0,0.0,73,0.00,,---,0.00,VWS V14.00,2013-11-29 11:06:00,
2013-11-29 05:11:00,29.4,22.1,30.45,South,180,0.0,0.0,74,0.00,,---,0.00,VWS V14.00,2013-11-29 11:11:00,
2013-11-29 05:16:00,29.1,21.9,30.45,South,180,0.0,0.0,74,0.00,,---,0.00,VWS V14.00,2013-11-29 11:16:00,
2013-11-29 05:21:00,29.0,21.8,30.45,South,180,0.0,0.0,74,0.00,,---,0.00,VWS V14.00,2013-11-29 11:21:00,
2013-11-29 05:26:00,28.9,22.0,30.45,South,180,0.0,0.0,75,0.00,,---,0.00,VWS V14.00,2013-11-29 11:26:00,
2013-11-29 05:31:00,28.8,21.9,30.45,South,180,0.0,0.0,75,0.00,,---,0.00,VWS V14.00,2013-11-29 11:31:00,
2013-11-29 05:36:00,28.7,21.8,30.45,South,180,0.0,0.0,75,0.00,,---,0.00,VWS V14.00,2013-11-29 11:36:00,
2013-11-29 05:41:00,28.6,21.7,30.45,South,180,0.0,0.0,75,0.00,,---,0.00,VWS V14.00,2013-11-29 11:41:00,
2013-11-29 05:46:00,28.5,21.9,30.45,South,180,0.0,0.0,76,0.00,,---,0.00,VWS V14.00,2013-11-29 11:46:00,
2013-11-29 05:51:00,28.4,21.8,30.45,South,180,0.0,0.0,76,0.00,,---,0.00,VWS V14.00,2013-11-29 11:51:00,
2013-11-29 05:56:00,28.4,21.8,30.45,South,180,0.0,0.0,76,0.00,,---,0.00,VWS V14.00,2013-11-29 11:56:00,
2013-11-29 06:01:00,28.5,21.9,30.45,South,180,0.0,0.0,76,0.00,,---,0.00,VWS V14.00,2013-11-29 12:01:00,
2013-11-29 06:06:00,28.5,22.2,30.45,South,180,0.0,0.0,77,0.00,,---,0.00,VWS V14.00,2013-11-29 12:06:00,
2013-11-29 06:11:00,28.5,22.2,30.45,South,180,0.0,0.0,77,0.00,,---,0.00,VWS V14.00,2013-11-29 12:11:00,
2013-11-29 06:16:00,28.5,22.2,30.45,South,180,0.0,0.0,77,0.00,,---,0.00,VWS V14.00,2013-11-29 12:16:00,
2013-11-29 06:21:00,28.4,21.8,30.45,South,180,0.0,0.0,76,0.00,,---,0.00,VWS V14.00,2013-11-29 12:21:00,
2013-11-29 06:26:00,28.3,21.7,30.45,South,180,0.0,0.0,76,0.00,,---,0.00,VWS V14.00,2013-11-29 12:26:00,
2013-11-29 06:31:00,28.1,21.5,30.45,South,180,0.0,0.0,76,0.00,,---,0.00,VWS V14.00,2013-11-29 12:31:00,
2013-11-29 06:36:00,27.9,21.3,30.46,South,180,0.0,0.0,76,0.00,,---,0.00,VWS V14.00,2013-11-29 12:36:00,
2013-11-29 06:41:00,27.7,21.1,30.46,South,180,0.0,0.0,76,0.00,,---,0.00,VWS V14.00,2013-11-29 12:41:00,
2013-11-29 06:46:00,27.5,20.9,30.46,South,180,0.0,0.0,76,0.00,,---,0.00,VWS V14.00,2013-11-29 12:46:00,
2013-11-29 06:51:00,27.4,21.1,30.46,South,180,0.0,0.0,77,0.00,,---,0.00,VWS V14.00,2013-11-29 12:51:00,
2013-11-29 06:56:00,27.3,21.1,30.46,South,180,0.0,0.0,77,0.00,,---,0.00,VWS V14.00,2013-11-29 12:56:00,
2013-11-29 07:01:00,27.2,21.3,30.46,South,180,0.0,0.0,78,0.00,,---,0.00,VWS V14.00,2013-11-29 13:01:00,
2013-11-29 07:06:00,27.2,21.3,30.46,South,180,0.0,0.0,78,0.00,,---,0.00,VWS V14.00,2013-11-29 13:06:00,
2013-11-29 07:11:00,27.1,21.2,30.46,South,180,0.0,0.0,78,0.00,,---,0.00,VWS V14.00,2013-11-29 13:11:00,
2013-11-29 07:15:00,27.0,21.1,30.46,South,180,0.0,0.0,78,0.00,,---,0.00,VWS V14.00,2013-11-29 13:15:00,
2013-11-29 07:20:00,26.9,21.0,30.46,South,180,0.0,0.0,78,0.00,,---,0.00,VWS V14.00,2013-11-29 13:20:00,
2013-11-29 07:25:00,26.7,20.8,30.47,South,180,0.0,0.0,78,0.00,,---,0.00,VWS V14.00,2013-11-29 13:25:00,
2013-11-29 07:30:00,26.6,20.7,30.47,South,180,0.0,0.0,78,0.00,,---,0.00,VWS V14.00,2013-11-29 13:30:00,
2013-11-29 07:35:00,26.6,20.7,30.47,South,180,0.0,0.0,78,0.00,,---,0.00,VWS V14.00,2013-11-29 13:35:00,
2013-11-29 07:40:00,26.5,20.9,30.47,South,180,0.0,0.0,79,0.00,,---,0.00,VWS V14.00,2013-11-29 13:40:00,
2013-11-29 07:45:00,26.5,20.9,30.47,South,180,0.0,0.0,79,0.00,,---,0.00,VWS V14.00,2013-11-29 13:45:00,
2013-11-29 07:50:00,26.6,21.0,30.47,South,180,0.0,0.0,79,0.00,,---,0.00,VWS V14.00,2013-11-29 13:50:00,
2013-11-29 07:55:00,26.8,21.5,30.47,South,180,0.0,0.0,80,0.00,,---,0.00,VWS V14.00,2013-11-29 13:55:00,
2013-11-29 08:00:00,27.1,21.8,30.47,South,180,0.0,0.0,80,0.00,,---,0.00,VWS V14.00,2013-11-29 14:00:00,
2013-11-29 08:05:00,27.6,22.5,30.47,South,180,0.0,0.0,81,0.00,,---,0.00,VWS V14.00,2013-11-29 14:05:00,
2013-11-29 08:10:00,28.1,23.3,30.47,South,180,0.0,0.0,82,0.00,,---,0.00,VWS V14.00,2013-11-29 14:10:00,
2013-11-29 08:15:00,28.8,24.0,30.48,South,180,0.0,0.0,82,0.00,,---,0.00,VWS V14.00,2013-11-29 14:15:00,
2013-11-29 08:20:00,29.3,24.5,30.48,South,180,0.0,0.0,82,0.00,,---,0.00,VWS V14.00,2013-11-29 14:20:00,
2013-11-29 08:25:00,29.8,25.0,30.48,South,180,0.0,0.0,82,0.00,,---,0.00,VWS V14.00,2013-11-29 14:25:00,
2013-11-29 08:30:00,30.4,25.6,30.48,South,180,0.0,0.0,82,0.00,,---,0.00,VWS V14.00,2013-11-29 14:30:00,
2013-11-29 08:35:00,30.9,26.1,30.48,South,180,0.0,0.0,82,0.00,,---,0.00,VWS V14.00,2013-11-29 14:35:00,
2013-11-29 08:40:00,31.5,26.6,30.48,South,180,0.0,0.0,82,0.00,,---,0.00,VWS V14.00,2013-11-29 14:40:00,
2013-11-29 08:45:00,32.2,27.3,30.48,South,180,0.0,3.0,82,0.00,,---,0.00,VWS V14.00,2013-11-29 14:45:00,
2013-11-29 08:50:00,33.0,28.1,30.49,South,180,2.0,3.0,82,0.00,,---,0.00,VWS V14.00,2013-11-29 14:50:00,
2013-11-29 08:55:00,33.9,28.7,30.48,South,180,3.0,4.0,81,0.00,,---,0.00,VWS V14.00,2013-11-29 14:55:00,
2013-11-29 09:00:00,34.6,28.8,30.48,South,180,3.0,5.0,79,0.00,,---,0.00,VWS V14.00,2013-11-29 15:00:00,
2013-11-29 09:05:00,35.5,29.0,30.48,South,180,4.0,6.0,77,0.00,,---,0.00,VWS V14.00,2013-11-29 15:05:00,
2013-11-29 09:10:00,36.2,28.7,30.48,South,178,4.0,10.0,74,0.00,,---,0.00,VWS V14.00,2013-11-29 15:10:00,
2013-11-29 09:15:00,37.0,29.2,30.48,South,177,4.0,9.0,73,0.00,,---,0.00,VWS V14.00,2013-11-29 15:15:00,
2013-11-29 09:20:00,37.6,29.1,30.48,South,171,6.0,9.0,71,0.00,,---,0.00,VWS V14.00,2013-11-29 15:20:00,
2013-11-29 09:25:00,38.2,28.9,30.48,SSE,161,5.0,9.0,69,0.00,,---,0.00,VWS V14.00,2013-11-29 15:25:00,
2013-11-29 09:30:00,38.8,29.2,30.48,South,172,10.0,11.0,68,0.00,,---,0.00,VWS V14.00,2013-11-29 15:30:00,
2013-11-29 09:35:00,39.2,28.8,30.48,SSE,167,3.0,12.0,66,0.00,,---,0.00,VWS V14.00,2013-11-29 15:35:00,
2013-11-29 09:40:00,39.8,29.0,30.48,South,172,6.0,11.0,65,0.00,,---,0.00,VWS V14.00,2013-11-29 15:40:00,
2013-11-29 09:45:00,40.5,29.7,30.48,SSE,158,9.0,9.0,65,0.00,,---,0.00,VWS V14.00,2013-11-29 15:45:00,
2013-11-29 09:50:00,41.1,29.1,30.48,SSE,160,6.0,13.0,62,0.00,,---,0.00,VWS V14.00,2013-11-29 15:50:00,
2013-11-29 09:55:00,41.5,29.1,30.47,SE,142,6.0,11.0,61,0.00,,---,0.00,VWS V14.00,2013-11-29 15:55:00,
2013-11-29 10:00:00,42.1,29.6,30.48,South,173,12.0,13.0,61,0.00,,---,0.00,VWS V14.00,2013-11-29 16:00:00,
2013-11-29 10:05:00,42.6,29.7,30.47,SSE,158,7.0,12.0,60,0.00,,---,0.00,VWS V14.00,2013-11-29 16:05:00,
2013-11-29 10:10:00,43.1,29.8,30.47,SSE,152,7.0,11.0,59,0.00,,---,0.00,VWS V14.00,2013-11-29 16:10:00,
2013-11-29 10:15:00,43.7,29.9,30.47,SSE,167,4.0,11.0,58,0.00,,---,0.00,VWS V14.00,2013-11-29 16:15:00,
2013-11-29 10:20:00,44.2,30.0,30.47,SE,146,8.0,11.0,57,0.00,,---,0.00,VWS V14.00,2013-11-29 16:20:00,
2013-11-29 10:25:00,44.8,30.5,30.47,SSE,153,7.0,10.0,57,0.00,,---,0.00,VWS V14.00,2013-11-29 16:25:00,
2013-11-29 10:30:00,45.4,30.2,30.47,SSE,147,7.0,9.0,55,0.00,,---,0.00,VWS V14.00,2013-11-29 16:30:00,
2013-11-29 10:35:00,45.9,30.7,30.47,SSE,163,5.0,10.0,55,0.00,,---,0.00,VWS V14.00,2013-11-29 16:35:00,
2013-11-29 10:40:00,46.5,30.8,30.47,SSE,157,7.0,11.0,54,0.00,,---,0.00,VWS V14.00,2013-11-29 16:40:00,
2013-11-29 10:45:00,46.8,30.6,30.47,SSE,161,6.0,13.0,53,0.00,,---,0.00,VWS V14.00,2013-11-29 16:45:00,
2013-11-29 10:50:00,47.2,30.5,30.47,SSE,167,4.0,10.0,52,0.00,,---,0.00,VWS V14.00,2013-11-29 16:50:00,
2013-11-29 10:55:00,47.5,30.8,30.47,SE,145,6.0,13.0,52,0.00,,---,0.00,VWS V14.00,2013-11-29 16:55:00,
2013-11-29 11:00:00,47.9,30.7,30.46,SSE,159,8.0,12.0,51,0.00,,---,0.00,VWS V14.00,2013-11-29 17:00:00,
2013-11-29 11:05:00,48.2,30.9,30.46,SSE,160,8.0,16.0,51,0.00,,---,0.00,VWS V14.00,2013-11-29 17:05:00,
2013-11-29 11:10:00,48.5,30.7,30.45,South,176,7.0,19.0,50,0.00,,---,0.00,VWS V14.00,2013-11-29 17:10:00,
2013-11-29 11:15:00,48.8,31.0,30.45,SSE,165,9.0,11.0,50,0.00,,---,0.00,VWS V14.00,2013-11-29 17:15:00,
2013-11-29 11:20:00,49.3,31.0,30.45,South,189,8.0,13.0,49,0.00,,---,0.00,VWS V14.00,2013-11-29 17:20:00,
2013-11-29 11:25:00,49.7,31.3,30.44,SSE,154,6.0,12.0,49,0.00,,---,0.00,VWS V14.00,2013-11-29 17:25:00,
2013-11-29 11:30:00,50.3,31.9,30.44,SSE,157,6.0,6.0,49,0.00,,---,0.00,VWS V14.00,2013-11-29 17:30:00,
2013-11-29 11:35:00,50.7,31.7,30.43,SSE,166,7.0,13.0,48,0.00,,---,0.00,VWS V14.00,2013-11-29 17:35:00,
2013-11-29 11:40:00,50.9,30.9,30.43,South,183,12.0,12.0,46,0.00,,---,0.00,VWS V14.00,2013-11-29 17:40:00,
2013-11-29 11:45:00,51.1,30.0,30.43,SSE,154,11.0,17.0,44,0.00,,---,0.00,VWS V14.00,2013-11-29 17:45:00,
2013-11-29 11:50:00,51.4,30.2,30.43,South,188,4.0,12.0,44,0.00,,---,0.00,VWS V14.00,2013-11-29 17:50:00,
2013-11-29 11:55:00,51.8,30.6,30.43,SSE,161,5.0,12.0,44,0.00,,---,0.00,VWS V14.00,2013-11-29 17:55:00,
2013-11-29 12:00:00,52.0,30.2,30.42,SSE,153,10.0,14.0,43,0.00,,---,0.00,VWS V14.00,2013-11-29 18:00:00,
2013-11-29 12:05:00,52.1,29.7,30.42,SSE,161,6.0,15.0,42,0.00,,---,0.00,VWS V14.00,2013-11-29 18:05:00,
2013-11-29 12:10:00,52.2,29.2,30.42,South,185,9.0,15.0,41,0.00,,---,0.00,VWS V14.00,2013-11-29 18:10:00,
2013-11-29 12:15:00,52.6,29.0,30.41,South,173,14.0,16.0,40,0.00,,---,0.00,VWS V14.00,2013-11-29 18:15:00,
2013-11-29 12:20:00,52.8,28.5,30.41,SSE,154,7.0,14.0,39,0.00,,---,0.00,VWS V14.00,2013-11-29 18:20:00,
2013-11-29 12:25:00,53.2,28.9,30.41,South,176,9.0,13.0,39,0.00,,---,0.00,VWS V14.00,2013-11-29 18:25:00,
2013-11-29 12:30:00,53.4,28.5,30.41,South,181,6.0,15.0,38,0.00,,---,0.00,VWS V14.00,2013-11-29 18:30:00,
2013-11-29 12:35:00,53.6,29.3,30.40,SSE,167,9.0,19.0,39,0.00,,---,0.00,VWS V14.00,2013-11-29 18:35:00,
2013-11-29 12:40:00,53.7,28.7,30.40,SSW,207,10.0,12.0,38,0.00,,---,0.00,VWS V14.00,2013-11-29 18:40:00,
2013-11-29 12:45:00,54.0,29.6,30.39,South,181,9.0,14.0,39,0.00,,---,0.00,VWS V14.00,2013-11-29 18:45:00,
2013-11-29 12:50:00,54.2,29.2,30.39,South,185,9.0,14.0,38,0.00,,---,0.00,VWS V14.00,2013-11-29 18:50:00,
2013-11-29 12:55:00,54.3,28.6,30.39,SE,143,7.0,14.0,37,0.00,,---,0.00,VWS V14.00,2013-11-29 18:55:00,
2013-11-29 13:00:00,54.3,29.2,30.38,SSE,160,7.0,12.0,38,0.00,,---,0.00,VWS V14.00,2013-11-29 19:00:00,
2013-11-29 13:05:00,54.4,29.3,30.38,SSE,155,9.0,14.0,38,0.00,,---,0.00,VWS V14.00,2013-11-29 19:05:00,
2013-11-29 13:10:00,54.6,29.5,30.37,South,174,8.0,14.0,38,0.00,,---,0.00,VWS V14.00,2013-11-29 19:10:00,
2013-11-29 13:15:00,54.9,29.1,30.37,SE,132,11.0,12.0,37,0.00,,---,0.00,VWS V14.00,2013-11-29 19:15:00,
2013-11-29 13:20:00,54.7,29.0,30.37,SE,141,11.0,12.0,37,0.00,,---,0.00,VWS V14.00,2013-11-29 19:20:00,
2013-11-29 13:25:00,54.8,29.0,30.36,SSE,153,3.0,12.0,37,0.00,,---,0.00,VWS V14.00,2013-11-29 19:25:00,
2013-11-29 13:30:00,55.0,29.2,30.36,SSE,150,10.0,16.0,37,0.00,,---,0.00,VWS V14.00,2013-11-29 19:30:00,
2013-11-29 13:35:00,55.0,29.2,30.35,SE,130,12.0,18.0,37,0.00,,---,0.00,VWS V14.00,2013-11-29 19:35:00,
2013-11-29 13:40:00,55.1,29.3,30.36,SSE,149,9.0,16.0,37,0.00,,---,0.00,VWS V14.00,2013-11-29 19:40:00,
2013-11-29 13:45:00,55.2,28.7,30.35,SSE,152,12.0,15.0,36,0.00,,---,0.00,VWS V14.00,2013-11-29 19:45:00,
2013-11-29 13:50:00,55.1,28.0,30.35,SE,142,8.0,16.0,35,0.00,,---,0.00,VWS V14.00,2013-11-29 19:50:00,
2013-11-29 13:55:00,55.4,28.2,30.34,SE,136,10.0,17.0,35,0.00,,---,0.00,VWS V14.00,2013-11-29 19:55:00,
2013-11-29 14:00:00,55.5,28.3,30.34,South,174,13.0,15.0,35,0.00,,---,0.00,VWS V14.00,2013-11-29 20:00:00,
2013-11-29 14:05:00,55.5,27.6,30.34,SSE,161,13.0,15.0,34,0.00,,---,0.00,VWS V14.00,2013-11-29 20:05:00,
2013-11-29 14:10:00,55.5,27.6,30.33,SE,146,6.0,16.0,34,0.00,,---,0.00,VWS V14.00,2013-11-29 20:10:00,
2013-11-29 14:15:00,55.7,27.8,30.33,South,186,9.0,17.0,34,0.00,,---,0.00,VWS V14.00,2013-11-29 20:15:00,
2013-11-29 14:20:00,55.9,28.0,30.33,South,182,12.0,15.0,34,0.00,,---,0.00,VWS V14.00,2013-11-29 20:20:00,
2013-11-29 14:25:00,56.2,28.2,30.33,South,185,13.0,14.0,34,0.00,,---,0.00,VWS V14.00,2013-11-29 20:25:00,
2013-11-29 14:30:00,56.3,26.8,30.33,SSE,148,4.0,15.0,32,0.00,,---,0.00,VWS V14.00,2013-11-29 20:30:00,
2013-11-29 14:35:00,56.3,26.8,30.33,South,180,10.0,15.0,32,0.00,,---,0.00,VWS V14.00,2013-11-29 20:35:00,
2013-11-29 14:40:00,56.4,26.9,30.33,SSE,165,7.0,15.0,32,0.00,,---,0.00,VWS V14.00,2013-11-29 20:40:00,
2013-11-29 14:45:00,56.6,27.1,30.32,South,172,9.0,14.0,32,0.00,,---,0.00,VWS V14.00,2013-11-29 20:45:00,
2013-11-29 14:50:00,56.6,27.1,30.32,SSE,165,13.0,14.0,32,0.00,,---,0.00,VWS V14.00,2013-11-29 20:50:00,
2013-11-29 14:55:00,56.4,26.2,30.32,SSE,156,6.0,16.0,31,0.00,,---,0.00,VWS V14.00,2013-11-29 20:55:00,
2013-11-29 15:00:00,56.5,27.0,30.32,SSE,147,9.0,16.0,32,0.00,,---,0.00,VWS V14.00,2013-11-29 21:00:00,
2013-11-29 15:05:00,56.5,26.2,30.32,South,176,11.0,15.0,31,0.00,,---,0.00,VWS V14.00,2013-11-29 21:05:00,
2013-11-29 15:10:00,56.5,27.0,30.31,South,176,15.0,16.0,32,0.00,,---,0.00,VWS V14.00,2013-11-29 21:10:00,
2013-11-29 15:15:00,56.4,26.9,30.32,SSE,148,8.0,18.0,32,0.00,,---,0.00,VWS V14.00,2013-11-29 21:15:00,
2013-11-29 15:20:00,56.2,26.8,30.31,SE,132,11.0,15.0,32,0.00,,---,0.00,VWS V14.00,2013-11-29 21:20:00,
2013-11-29 15:25:00,56.3,25.3,30.31,South,190,13.0,16.0,30,0.00,,---,0.00,VWS V14.00,2013-11-29 21:25:00,
2013-11-29 15:30:00,56.3,25.3,30.30,South,170,9.0,14.0,30,0.00,,---,0.00,VWS V14.00,2013-11-29 21:30:00,
2013-11-29 15:35:00,56.4,26.9,30.30,SSE,163,11.0,14.0,32,0.00,,---,0.00,VWS V14.00,2013-11-29 21:35:00,
2013-11-29 15:40:00,56.2,26.0,30.30,SE,130,14.0,14.0,31,0.00,,---,0.00,VWS V14.00,2013-11-29 21:40:00,
2013-11-29 15:45:00,55.9,26.5,30.30,SSE,150,13.0,16.0,32,0.00,,---,0.00,VWS V14.00,2013-11-29 21:45:00,
2013-11-29 15:50:00,55.7,25.5,30.30,SSE,147,9.0,17.0,31,0.00,,---,0.00,VWS V14.00,2013-11-29 21:50:00,
2013-11-29 15:55:00,55.6,26.2,30.30,SSE,165,15.0,16.0,32,0.00,,---,0.00,VWS V14.00,2013-11-29 21:55:00,
2013-11-29 16:00:00,55.5,26.1,30.30,South,180,8.0,14.0,32,0.00,,---,0.00,VWS V14.00,2013-11-29 22:00:00,
2013-11-29 16:05:00,55.4,26.0,30.30,SSE,152,7.0,17.0,32,0.00,,---,0.00,VWS V14.00,2013-11-29 22:05:00,
2013-11-29 16:10:00,55.2,25.9,30.30,SSE,165,6.0,13.0,32,0.00,,---,0.00,VWS V14.00,2013-11-29 22:10:00,
2013-11-29 16:15:00,54.9,25.6,30.30,SSE,158,9.0,12.0,32,0.00,,---,0.00,VWS V14.00,2013-11-29 22:15:00,
2013-11-29 16:20:00,54.6,25.4,30.30,SSE,167,6.0,12.0,32,0.00,,---,0.00,VWS V14.00,2013-11-29 22:20:00,
2013-11-29 16:25:00,54.3,25.8,30.30,SSE,163,8.0,13.0,33,0.00,,---,0.00,VWS V14.00,2013-11-29 22:25:00,
2013-11-29 16:30:00,54.1,25.6,30.30,SSE,167,9.0,11.0,33,0.00,,---,0.00,VWS V14.00,2013-11-29 22:30:00,
2013-11-29 16:35:00,53.9,25.5,30.29,SSE,153,5.0,13.0,33,0.00,,---,0.00,VWS V14.00,2013-11-29 22:35:00,
2013-11-29 16:40:00,53.7,26.0,30.29,SSE,162,5.0,9.0,34,0.00,,---,0.00,VWS V14.00,2013-11-29 22:40:00,
2013-11-29 16:45:00,53.5,25.8,30.29,South,177,12.0,15.0,34,0.00,,---,0.00,VWS V14.00,2013-11-29 22:45:00,
2013-11-29 16:50:00,53.2,25.6,30.29,SSE,161,9.0,12.0,34,0.00,,---,0.00,VWS V14.00,2013-11-29 22:50:00,
2013-11-29 16:55:00,52.8,25.9,30.29,SSE,164,5.0,10.0,35,0.00,,---,0.00,VWS V14.00,2013-11-29 22:55:00,
2013-11-29 17:00:00,52.5,25.7,30.29,SSE,165,4.0,10.0,35,0.00,,---,0.00,VWS V14.00,2013-11-29 23:00:00,
2013-11-29 17:05:00,52.1,25.3,30.29,SSE,165,6.0,10.0,35,0.00,,---,0.00,VWS V14.00,2013-11-29 23:05:00,
2013-11-29 17:10:00,51.8,25.7,30.29,SSE,168,9.0,12.0,36,0.00,,---,0.00,VWS V14.00,2013-11-29 23:10:00,
2013-11-29 17:15:00,51.4,25.4,30.29,SSE,168,4.0,8.0,36,0.00,,---,0.00,VWS V14.00,2013-11-29 23:15:00,
2013-11-29 17:20:00,51.1,25.1,30.29,SSE,166,4.0,7.0,36,0.00,,---,0.00,VWS V14.00,2013-11-29 23:20:00,
2013-11-29 17:25:00,50.7,25.4,30.29,SSE,166,0.0,5.0,37,0.00,,---,0.00,VWS V14.00,2013-11-29 23:25:00,
2013-11-29 17:30:00,50.4,25.1,30.29,SSE,166,3.0,6.0,37,0.00,,---,0.00,VWS V14.00,2013-11-29 23:30:00,
2013-11-29 17:35:00,50.1,24.9,30.29,SSE,166,2.0,5.0,37,0.00,,---,0.00,VWS V14.00,2013-11-29 23:35:00,
2013-11-29 17:40:00,49.5,25.0,30.29,SSE,164,2.0,5.0,38,0.00,,---,0.00,VWS V14.00,2013-11-29 23:40:00,
2013-11-29 17:45:00,49.2,24.7,30.29,SSE,164,3.0,5.0,38,0.00,,---,0.00,VWS V14.00,2013-11-29 23:45:00,
2013-11-29 17:50:00,48.8,25.0,30.30,SSE,164,2.0,5.0,39,0.00,,---,0.00,VWS V14.00,2013-11-29 23:50:00,
2013-11-29 17:55:00,48.6,25.4,30.29,SSE,164,2.0,3.0,40,0.00,,---,0.00,VWS V14.00,2013-11-29 23:55:00,
2013-11-29 18:00:00,48.3,25.1,30.29,SSE,164,3.0,5.0,40,0.00,,---,0.00,VWS V14.00,2013-11-30 00:00:00,
2013-11-29 18:05:00,48.0,25.4,30.29,SSE,164,4.0,5.0,41,0.00,,---,0.00,VWS V14.00,2013-11-30 00:05:00,
2013-11-29 18:10:00,47.9,25.4,30.29,SSE,163,3.0,5.0,41,0.00,,---,0.00,VWS V14.00,2013-11-30 00:10:00,
2013-11-29 18:15:00,47.6,25.1,30.29,SSE,163,2.0,4.0,41,0.00,,---,0.00,VWS V14.00,2013-11-30 00:15:00,
2013-11-29 18:20:00,47.3,25.4,30.29,SSE,163,3.0,4.0,42,0.00,,---,0.00,VWS V14.00,2013-11-30 00:20:00,
2013-11-29 18:25:00,47.0,25.1,30.29,SSE,163,4.0,4.0,42,0.00,,---,0.00,VWS V14.00,2013-11-30 00:25:00,
2013-11-29 18:30:00,46.7,24.8,30.29,SSE,163,3.0,4.0,42,0.00,,---,0.00,VWS V14.00,2013-11-30 00:30:00,
2013-11-29 18:35:00,46.4,24.6,30.30,SSE,163,2.0,4.0,42,0.00,,---,0.00,VWS V14.00,2013-11-30 00:35:00,
2013-11-29 18:40:00,46.1,24.3,30.30,SSE,163,2.0,4.0,42,0.00,,---,0.00,VWS V14.00,2013-11-30 00:40:00,
2013-11-29 18:45:00,45.9,24.7,30.30,SSE,163,3.0,4.0,43,0.00,,---,0.00,VWS V14.00,2013-11-30 00:45:00,
2013-11-29 18:50:00,45.6,24.4,30.30,SSE,163,2.0,5.0,43,0.00,,---,0.00,VWS V14.00,2013-11-30 00:50:00,
2013-11-29 18:55:00,45.4,24.8,30.30,SSE,163,3.0,5.0,44,0.00,,---,0.00,VWS V14.00,2013-11-30 00:55:00,
2013-11-29 19:00:00,45.3,25.2,30.30,SSE,163,4.0,6.0,45,0.00,,---,0.00,VWS V14.00,2013-11-30 01:00:00,
2013-11-29 19:05:00,45.2,25.7,30.29,SSE,160,3.0,9.0,46,0.00,,---,0.00,VWS V14.00,2013-11-30 01:05:00,
2013-11-29 19:10:00,45.2,26.2,30.29,SSE,157,6.0,7.0,47,0.00,,---,0.00,VWS V14.00,2013-11-30 01:10:00,
2013-11-29 19:15:00,45.3,26.8,30.29,SSE,154,5.0,7.0,48,0.00,,---,0.00,VWS V14.00,2013-11-30 01:15:00,
2013-11-29 19:20:00,45.4,27.4,30.30,SSE,155,6.0,11.0,49,0.00,,---,0.00,VWS V14.00,2013-11-30 01:20:00,
2013-11-29 19:25:00,45.7,27.6,30.30,SSE,153,4.0,9.0,49,0.00,,---,0.00,VWS V14.00,2013-11-30 01:25:00,
2013-11-29 19:30:00,45.8,28.2,30.30,SSE,162,6.0,10.0,50,0.00,,---,0.00,VWS V14.00,2013-11-30 01:30:00,
2013-11-29 19:35:00,46.0,28.4,30.30,SSE,153,5.0,10.0,50,0.00,,---,0.00,VWS V14.00,2013-11-30 01:35:00,
2013-11-29 19:40:00,46.0,28.4,30.30,SSE,155,7.0,10.0,50,0.00,,---,0.00,VWS V14.00,2013-11-30 01:40:00,
2013-11-29 19:45:00,46.1,29.0,30.29,SSE,160,5.0,10.0,51,0.00,,---,0.00,VWS V14.00,2013-11-30 01:45:00,
2013-11-29 19:50:00,46.1,29.0,30.29,SSE,154,5.0,11.0,51,0.00,,---,0.00,VWS V14.00,2013-11-30 01:50:00,
2013-11-29 19:55:00,46.1,29.0,30.29,SSE,156,7.0,12.0,51,0.00,,---,0.00,VWS V14.00,2013-11-30 01:55:00,
2013-11-29 20:00:00,46.1,29.5,30.29,SSE,161,6.0,13.0,52,0.00,,---,0.00,VWS V14.00,2013-11-30 02:00:00,
2013-11-29 20:05:00,46.1,29.5,30.29,SSE,150,10.0,11.0,52,0.00,,---,0.00,VWS V14.00,2013-11-30 02:05:00,
2013-11-29 20:10:00,46.0,29.4,30.29,SSE,159,6.0,12.0,52,0.00,,---,0.00,VWS V14.00,2013-11-30 02:10:00,
2013-11-29 20:15:00,46.1,29.5,30.28,SSE,147,6.0,15.0,52,0.00,,---,0.00,VWS V14.00,2013-11-30 02:15:00,
2013-11-29 20:20:00,46.1,29.5,30.28,SSE,150,8.0,11.0,52,0.00,,---,0.00,VWS V14.00,2013-11-30 02:20:00,
2013-11-29 20:25:00,46.0,29.4,30.28,SSE,158,5.0,11.0,52,0.00,,---,0.00,VWS V14.00,2013-11-30 02:25:00,
2013-11-29 20:30:00,46.0,29.8,30.28,SSE,167,7.0,14.0,53,0.00,,---,0.00,VWS V14.00,2013-11-30 02:30:00,
2013-11-29 20:35:00,45.9,29.8,30.28,SSE,159,8.0,12.0,53,0.00,,---,0.00,VWS V14.00,2013-11-30 02:35:00,
2013-11-29 20:40:00,45.8,29.7,30.28,SSE,153,9.0,13.0,53,0.00,,---,0.00,VWS V14.00,2013-11-30 02:40:00,
2013-11-29 20:45:00,45.8,30.1,30.28,SSE,157,10.0,11.0,54,0.00,,---,0.00,VWS V14.00,2013-11-30 02:45:00,
2013-11-29 20:50:00,45.7,30.0,30.28,South,171,11.0,15.0,54,0.00,,---,0.00,VWS V14.00,2013-11-30 02:50:00,
2013-11-29 20:55:00,45.6,29.9,30.28,SSE,161,11.0,16.0,54,0.00,,---,0.00,VWS V14.00,2013-11-30 02:55:00,
2013-11-29 21:00:00,45.5,30.3,30.28,SSE,161,10.0,14.0,55,0.00,,---,0.00,VWS V14.00,2013-11-30 03:00:00,
2013-11-29 21:05:00,45.4,30.2,30.29,SSE,159,4.0,13.0,55,0.00,,---,0.00,VWS V14.00,2013-11-30 03:05:00,
2013-11-29 21:10:00,45.3,30.1,30.29,SSE,163,7.0,16.0,55,0.00,,---,0.00,VWS V14.00,2013-11-30 03:10:00,
2013-11-29 21:15:00,45.3,30.1,30.29,SSE,164,11.0,15.0,55,0.00,,---,0.00,VWS V14.00,2013-11-30 03:15:00,
2013-11-29 21:20:00,45.3,30.5,30.29,SSE,167,6.0,13.0,56,0.00,,---,0.00,VWS V14.00,2013-11-30 03:20:00,
2013-11-29 21:25:00,45.2,30.5,30.29,SSE,158,11.0,18.0,56,0.00,,---,0.00,VWS V14.00,2013-11-30 03:25:00,
2013-11-29 21:30:00,45.3,30.5,30.29,SSE,159,9.0,14.0,56,0.00,,---,0.00,VWS V14.00,2013-11-30 03:30:00,
2013-11-29 21:35:00,45.2,30.5,30.29,SSW,192,13.0,15.0,56,0.00,,---,0.00,VWS V14.00,2013-11-30 03:35:00,
2013-11-29 21:40:00,45.2,30.9,30.29,South,169,12.0,19.0,57,0.00,,---,0.00,VWS V14.00,2013-11-30 03:40:00,
2013-11-29 21:45:00,45.1,30.8,30.28,South,173,16.0,17.0,57,0.00,,---,0.00,VWS V14.00,2013-11-30 03:45:00,
2013-11-29 21:50:00,45.0,30.7,30.29,SSE,166,8.0,15.0,57,0.00,,---,0.00,VWS V14.00,2013-11-30 03:50:00,
2013-11-29 21:55:00,45.0,30.7,30.29,South,180,12.0,16.0,57,0.00,,---,0.00,VWS V14.00,2013-11-30 03:55:00,
2013-11-29 22:00:00,45.0,30.7,30.29,South,174,11.0,16.0,57,0.00,,---,0.00,VWS V14.00,2013-11-30 04:00:00,
2013-11-29 22:05:00,44.9,31.0,30.29,SSE,165,11.0,16.0,58,0.00,,---,0.00,VWS V14.00,2013-11-30 04:05:00,
2013-11-29 22:10:00,44.8,30.9,30.28,South,169,14.0,16.0,58,0.00,,---,0.00,VWS V14.00,2013-11-30 04:10:00,
2013-11-29 22:15:00,44.8,30.9,30.28,South,173,11.0,20.0,58,0.00,,---,0.00,VWS V14.00,2013-11-30 04:15:00,
2013-11-29 22:20:00,44.7,30.9,30.28,South,172,13.0,17.0,58,0.00,,---,0.00,VWS V14.00,2013-11-30 04:20:00,
2013-11-29 22:25:00,44.6,30.8,30.28,South,175,10.0,15.0,58,0.00,,---,0.00,VWS V14.00,2013-11-30 04:25:00,
2013-11-29 22:30:00,44.5,30.7,30.28,South,170,8.0,14.0,58,0.00,,---,0.00,VWS V14.00,2013-11-30 04:30:00,
2013-11-29 22:35:00,44.4,31.0,30.28,South,176,11.0,17.0,59,0.00,,---,0.00,VWS V14.00,2013-11-30 04:35:00,
2013-11-29 22:40:00,44.3,30.9,30.28,South,172,7.0,13.0,59,0.00,,---,0.00,VWS V14.00,2013-11-30 04:40:00,
2013-11-29 22:45:00,44.3,30.9,30.28,SSE,166,8.0,14.0,59,0.00,,---,0.00,VWS V14.00,2013-11-30 04:45:00,
2013-11-29 22:50:00,44.2,30.8,30.29,South,174,4.0,14.0,59,0.00,,---,0.00,VWS V14.00,2013-11-30 04:50:00,
2013-11-29 22:55:00,44.1,30.7,30.29,South,178,9.0,14.0,59,0.00,,---,0.00,VWS V14.00,2013-11-30 04:55:00,
2013-11-29 23:00:00,44.0,30.6,30.29,South,173,4.0,10.0,59,0.00,,---,0.00,VWS V14.00,2013-11-30 05:00:00,
2013-11-29 23:01:00,43.9,30.5,30.29,South,173,6.0,10.0,59,0.00,,---,0.00,VWS V14.00,2013-11-30 05:01:00,
2013-11-29 23:06:00,43.7,30.7,30.29,SSE,157,7.0,10.0,60,0.00,,---,0.00,VWS V14.00,2013-11-30 05:06:00,
2013-11-29 23:11:00,43.6,30.6,30.29,SSE,165,6.0,11.0,60,0.00,,---,0.00,VWS V14.00,2013-11-30 05:11:00,
2013-11-29 23:16:00,43.4,30.5,30.29,South,171,5.0,14.0,60,0.00,,---,0.00,VWS V14.00,2013-11-30 05:16:00,
2013-11-29 23:21:00,43.3,30.4,30.29,South,175,10.0,14.0,60,0.00,,---,0.00,VWS V14.00,2013-11-30 05:21:00,
2013-11-29 23:26:00,43.2,30.7,30.28,South,169,10.0,11.0,61,0.00,,---,0.00,VWS V14.00,2013-11-30 05:26:00,
2013-11-29 23:31:00,43.1,30.6,30.29,South,173,8.0,14.0,61,0.00,,---,0.00,VWS V14.00,2013-11-30 05:31:00,
2013-11-29 23:36:00,42.9,30.4,30.28,South,169,4.0,12.0,61,0.00,,---,0.00,VWS V14.00,2013-11-30 05:36:00,
2013-11-29 23:41:00,42.9,30.4,30.28,South,171,6.0,16.0,61,0.00,,---,0.00,VWS V14.00,2013-11-30 05:41:00,
2013-11-29 23:46:00,42.8,30.7,30.29,SSE,165,9.0,10.0,62,0.00,,---,0.00,VWS V14.00,2013-11-30 05:46:00,
2013-11-29 23:51:00,42.7,30.6,30.29,SSE,167,5.0,10.0,62,0.00,,---,0.00,VWS V14.00,2013-11-30 05:51:00,
2013-11-29 23:56:00,42.5,30.4,30.29,SSE,166,4.0,10.0,62,0.00,,---,0.00,VWS V14.00,2013-11-30 05:56:00,